Hauptseite
METAR-TAF:

METAR-TAF

Flughäfen :

Riviera Airport

Albenga, Italien

Breite: 44-03N, Länge: 008-07E, Höhe: 45 m

Beobachtung

Neuester Wetterbericht von vor 10 Stunden und 23 Minuten, um 17:50 UTC
Wind 16 kt aus Nord/Nordost, Böen bis zu 26 kt, variierte zwischen Nord/Nordwest und Nordost
Temperatur 21°C
Luftfeuchtigkeit 49%
Luftdruck 1016 hPa
Sichtweite 10 km oder mehr
keine Wolken unter 1500 m und keine Kumulonimbus oder Gewitterwolken

METAR: LIMG 151750Z 02016G26KT 330V040 CAVOK 21/10 Q1016

Zeit: 06:13 (04:13 UTC)


TAF: fehlend

Wetterbeobachtungen und Prognosen von mehr als 4000 Flughäfen (METAR und TAF Bericht).

Die verfügbaren Stationen werden durch gelbe und rote Markierungen auf der Karte dargestellt.

Führen Sie die Maus auf sie, um den Namen der Station zu sehen.

Darauf klicken, um die Beobachtung von Wetterbeobachtungen und Prognosen zu sehen.

Um die Karte zu ändern : klicken Sie auf den grünen Tasten mit einem schwarzen Kreuz Zum Vergrößern, auf den grünen Button mit einem Gedankenstrich zu verkleinern, oder auf die grünen Pfeile für benachbarte Karten.


METAR-TAF: